Location: ??
(35.5052°N, 139.7262°E)
Time: 01:30:55
(UTC+00:00)

Cosmos 1844 Rocket - Pass Details

Date: 20 June 2021
Orbit: 823 x 846 km, 71.0° (Epoch: 05 August)

Event Time Altitude Azimuth Distance (km) Brightness Sun altitude
Rises 12:45:19 0° 328° (NNW) 3,408 7.3 -24.8°
Reaches altitude 10° 12:47:57 10° 319° (NW) 2,471 6.1 -25.1°
Maximum altitude 12:53:01 34° 256° (WSW) 1,352 3.8 -25.6°
Enters shadow 12:54:24 30° 228° (SW) 1,466 3.8 -25.7°
